DC1NF-7 Weather Reports


Display with metric or nautical units.
time (UTC)temp
F
wind
direction
speed
MPH
gust
MPH
rain 1hr
in
rain 24hr
in
rain mn
in
humidity
%
barometer
mb
20260902223031 63 0.0 0.0 0.00 0.00 0.00 77 1017.8
20260902222026 63 225 1.0 2.0 0.00 0.00 0.00 76 1017.9
20260902221023 62 232 1.0 2.0 0.00 0.00 0.00 78 1017.8
20260902220017 63 232 2.0 4.0 0.00 0.00 0.00 78 1017.7
20260902215114 63 205 1.0 2.0 0.00 0.00 0.00 76 1017.6
20260902214109 64 0.0 0.0 0.00 0.00 0.00 75 1017.6
20260902213106 64 0.0 0.0 0.00 0.00 0.00 73 1017.5
20260902212103 65 0.0 0.0 0.00 0.00 0.00 72 1017.7
20260902211059 65 0.0 0.0 0.00 0.00 0.00 72 1017.6
20260902210055 65 240 0.0 2.0 0.00 0.00 0.00 71 1017.6
20260902205052 65 248 0.0 2.0 0.00 0.00 0.00 71 1017.6
20260902204048 65 0.0 0.0 0.00 0.00 0.00 70 1017.5
20260902203043 65 0.0 0.0 0.00 0.00 0.00 71 1017.2
20260902202041 65 0.0 0.0 0.00 0.00 0.00 71 1017.2
20260902201038 65 0.0 0.0 0.00 0.00 0.00 71 1017.1
20260902200037 65 0.0 0.0 0.00 0.00 0.00 70 1017.1
20260902195031 66 0.0 0.0 0.00 0.00 0.00 70 1017.2
20260902194029 65 0.0 0.0 0.00 0.00 0.00 70 1017.1
20260902193024 65 0.0 0.0 0.00 0.00 0.00 71 1017.0
20260902192020 66 0.0 0.0 0.00 0.00 0.00 70 1017.1
20260902191015 67 0.0 0.0 0.00 0.00 0.00 67 1016.9
20260902190114 67 0.0 0.0 0.00 0.00 0.00 64 1016.8
20260902185109 68 0.0 0.0 0.00 0.00 0.00 62 1016.7
20260902184106 68 0.0 0.0 0.00 0.00 0.00 62 1016.7
20260902183102 69 0.0 2.0 0.00 0.00 0.00 61 1016.5
20260902182059 69 0.0 2.0 0.00 0.00 0.00 60 1016.5
20260902181055 69 0.0 2.0 0.00 0.00 0.00 59 1016.4
20260902180049 70 0.0 2.0 0.00 0.00 0.00 58 1016.4
20260902175047 71 132 0.0 2.0 0.00 0.00 0.00 57 1016.2
20260902174041 71 0.0 2.0 0.00 0.00 0.00 56 1016.1
20260902173038 72 216 1.0 4.0 0.00 0.00 0.00 55 1016.2
20260902172035 73 194 1.0 4.0 0.00 0.00 0.00 53 1016.1
20260902171033 74 203 1.0 4.0 0.00 0.00 0.00 53 1016.0
20260902170028 74 157 0.0 2.0 0.00 0.00 0.00 54 1016.0
20260902165023 74 225 1.0 4.0 0.00 0.00 0.00 54 1016.0
20260902164020 73 216 1.0 4.0 0.00 0.00 0.00 54 1016.1
20260902163016 74 200 1.0 2.0 0.00 0.00 0.00 54 1016.0
20260902162112 74 8 1.0 2.0 0.00 0.00 0.00 54 1016.1
20260902161110 74 214 2.0 4.0 0.00 0.00 0.00 54 1016.1
20260902160108 74 267 2.0 6.0 0.00 0.00 0.00 52 1016.1
20260902155105 74 248 2.0 4.0 0.00 0.00 0.00 53 1016.1
20260902154102 75 166 2.0 4.0 0.00 0.00 0.00 52 1016.0
20260902153056 75 222 3.0 6.0 0.00 0.00 0.00 51 1016.0
20260902152053 75 190 2.0 4.0 0.00 0.00 0.00 51 1016.1
20260902151048 76 240 2.0 4.0 0.00 0.00 0.00 50 1016.1
20260902150045 77 225 1.0 4.0 0.00 0.00 0.00 49 1016.1
20260902145041 75 226 3.0 8.0 0.00 0.00 0.00 50 1016.2
20260902144038 75 246 3.0 6.0 0.00 0.00 0.00 49 1016.3
20260902143033 76 235 5.0 8.0 0.00 0.00 0.00 46 1016.1
20260902142031 77 254 5.0 8.0 0.00 0.00 0.00 45 1016.2
20260902141025 79 262 3.0 7.0 0.00 0.00 0.00 44 1016.1
20260902140022 78 225 3.0 7.0 0.00 0.00 0.00 44 1016.2
20260902135019 78 220 3.0 8.0 0.00 0.00 0.00 46 1016.1
20260902134113 77 253 3.0 6.0 0.00 0.00 0.00 47 1016.2
20260902133112 79 251 3.0 6.0 0.00 0.00 0.00 45 1016.3
20260902132106 77 131 1.0 4.0 0.00 0.00 0.00 47 1016.4
20260902131103 76 221 1.0 4.0 0.00 0.00 0.00 49 1016.5
20260902130059 76 235 3.0 6.0 0.00 0.00 0.00 49 1016.4
20260902125055 75 205 3.0 8.0 0.00 0.00 0.00 49 1016.6
20260902124051 75 243 4.0 8.0 0.00 0.00 0.00 50 1016.6
20260902123047 75 243 3.0 4.0 0.00 0.00 0.00 50 1016.6
20260902122046 76 247 5.0 11.0 0.00 0.00 0.00 50 1016.6
20260902121043 77 220 5.0 13.0 0.00 0.00 0.00 47 1016.6
20260902120040 77 185 4.0 8.0 0.00 0.00 0.00 49 1016.6
20260902115037 77 224 3.0 6.0 0.00 0.00 0.00 49 1016.9
20260902114033 76 188 5.0 9.0 0.00 0.00 0.00 50 1017.1
20260902113029 75 186 4.0 9.0 0.00 0.00 0.00 50 1017.2
20260902112023 75 174 9.0 15.0 0.00 0.00 0.00 52 1017.1
20260902111019 75 173 4.0 11.0 0.00 0.00 0.00 52 1017.3
20260902110016 74 189 3.0 8.0 0.00 0.00 0.00 54 1017.3
20260902105113 73 208 3.0 6.0 0.00 0.00 0.00 55 1017.4
20260902104110 73 199 3.0 6.0 0.00 0.00 0.00 56 1017.6
20260902103106 72 191 4.0 7.0 0.00 0.00 0.00 58 1017.9
20260902102102 72 199 2.0 6.0 0.00 0.00 0.00 61 1018.0
20260902101059 72 180 2.0 7.0 0.00 0.00 0.00 63 1018.0
20260902100055 70 197 2.0 6.0 0.00 0.00 0.00 66 1018.0
20260902095049 68 186 2.0 4.0 0.00 0.00 0.00 70 1018.2
20260902094045 67 187 0.0 2.0 0.00 0.00 0.00 71 1018.2
20260902093044 66 180 1.0 2.0 0.00 0.00 0.00 74 1018.1
20260902092039 66 0.0 2.0 0.00 0.00 0.00 74 1018.1
20260902091035 68 180 0.0 2.0 0.00 0.00 0.00 70 1018.0
20260902090032 66 180 0.0 2.0 0.00 0.00 0.00 73 1018.0
20260902085029 65 0.0 2.0 0.00 0.00 0.00 75 1018.0
20260902084023 64 115 1.0 2.0 0.00 0.00 0.00 76 1017.9
20260902083021 64 184 1.0 2.0 0.00 0.00 0.00 76 1018.0
20260902082017 64 0.0 0.0 0.00 0.00 0.00 77 1018.1
20260902081115 62 0.0 0.0 0.00 0.00 0.00 79 1018.1
20260902080111 63 0.0 0.0 0.00 0.00 0.00 78 1018.0
20260902075108 61 0.0 0.0 0.00 0.00 0.00 81 1018.0
20260902074106 60 0.0 0.0 0.00 0.00 0.00 84 1017.9
20260902073100 59 0.0 0.0 0.00 0.00 0.00 85 1017.8
20260902072056 59 0.0 0.0 0.00 0.00 0.00 86 1017.9
20260902071054 57 0.0 0.0 0.00 0.00 0.00 88 1017.9
20260902070049 57 0.0 0.0 0.00 0.00 0.00 88 1017.8
20260902065047 57 0.0 0.0 0.00 0.00 0.00 87 1017.7
20260902064044 57 0.0 0.0 0.00 0.00 0.00 88 1017.6
20260902063038 56 0.0 0.0 0.00 0.00 0.00 88 1017.7
20260902062034 56 0.0 0.0 0.00 0.00 0.00 89 1017.8
20260902061030 54 0.0 0.0 0.00 0.00 0.00 91 1017.7
20260902060026 54 0.0 0.0 0.00 0.00 0.00 91 1017.6
20260902055021 54 0.0 0.0 0.00 0.00 0.00 92 1017.9
20260902054017 53 0.0 0.0 0.00 0.00 0.00 93 1017.8
20260902053114 52 0.0 0.0 0.00 0.00 0.00 93 1017.8
20260902052113 52 0.0 0.0 0.00 0.00 0.00 94 1017.8
20260902051108 51 0.0 0.0 0.00 0.00 0.00 94 1017.8
20260902050105 51 0.0 0.0 0.00 0.00 0.00 94 1017.7
20260902045100 52 0.0 0.0 0.00 0.00 0.00 94 1017.7
20260902044057 52 0.0 0.0 0.00 0.00 0.00 94 1017.7
20260902043052 52 0.0 0.0 0.00 0.00 0.00 93 1017.6
20260902042049 52 0.0 0.0 0.00 0.00 0.00 93 1017.6
20260902041048 52 0.0 0.0 0.00 0.00 0.00 93 1017.8
20260902040043 52 0.0 0.0 0.00 0.00 0.00 93 1017.7
20260902035040 52 0.0 0.0 0.00 0.00 0.00 93 1017.7
20260902034038 52 0.0 0.0 0.00 0.00 0.00 93 1017.6
20260902033033 52 0.0 0.0 0.00 0.00 0.00 94 1017.7
20260902032030 51 0.0 0.0 0.00 0.00 0.00 94 1017.5
20260902031054 51 0.0 0.0 0.00 0.00 0.00 93 1017.5
20260902030051 52 0.0 0.0 0.00 0.00 0.00 93 1017.5
20260902025048 52 0.0 0.0 0.00 0.00 0.00 93 1017.6
20260902024045 52 0.0 0.0 0.00 0.00 0.00 92 1017.6
20260902023042 53 0.0 0.0 0.00 0.00 0.00 92 1017.7
20260902022036 53 0.0 0.0 0.00 0.00 0.00 91 1017.7
20260902021034 53 0.0 0.0 0.00 0.00 0.00 91 1017.8
20260902020028 53 0.0 0.0 0.00 0.00 0.00 92 1017.7
20260902015025 53 0.0 0.0 0.00 0.00 0.00 91 1017.7
20260902014020 53 90 0.0 2.0 0.00 0.00 0.00 91 1017.6
20260902013018 53 0.0 0.0 0.00 0.00 0.00 91 1017.7
20260902012113 53 0.0 0.0 0.00 0.00 0.00 91 1017.8
20260902011110 53 0.0 0.0 0.00 0.00 0.00 91 1017.9
20260902010106 54 0.0 0.0 0.00 0.00 0.00 90 1017.8
20260902005102 54 0.0 0.0 0.00 0.00 0.00 90 1017.8
20260902004057 54 0.0 0.0 0.00 0.00 0.00 89 1017.9
20260902003056 54 0.0 0.0 0.00 0.00 0.00 88 1017.9
20260902002051 55 180 0.0 2.0 0.00 0.00 0.00 87 1018.0
20260902001048 55 0.0 0.0 0.00 0.00 0.00 87 1017.9
20260902000045 55 0.0 0.0 0.00 0.00 0.00 86 1018.0
20260901235044 56 0.0 0.0 0.00 0.00 0.00 86 1017.9
20260901234040 56 0.0 0.0 0.00 0.00 0.00 85 1017.9
20260901233036 56 0.0 0.0 0.00 0.00 0.00 84 1017.9
20260901232030 56 225 0.0 2.0 0.00 0.00 0.00 84 1017.9
20260901231027 56 216 1.0 2.0 0.00 0.00 0.00 84 1017.8
20260901230023 56 235 1.0 2.0 0.00 0.00 0.00 84 1017.9
20260901225020 57 0.0 0.0 0.00 0.00 0.00 84 1018.0
20260901224018 57 216 1.0 2.0 0.00 0.00 0.00 83 1017.9
20260901223113 58 225 1.0 2.0 0.00 0.00 0.00 82 1017.9